Lid_Strength_Index
-1 -1 -1 -1 -1 -1 -1 -1 -1 -1 -1 -0 1 2 2 2 3 5 9 6 3 -2 0 6 6 6 6 6 6 8 10 11 10 10 9 8 8 7 7 7 7 8 8 7 6
-1 -1 -1 -1 -1 -1 -1 -1 -1 -1 -0 0 1 2 1 2 5 8 2 -0 -1 -1 7 7 8 7 8 7 7 9 10 11 9 8 8 8 8 7 7 9 9 8 7 7 8
-1 -1 -1 -1 -1 -1 -1 -1 -1 -1 0 -0 1 2 2 2 8 8 0 -1 -1 1 6 7 7 7 9 8 9 9 10 9 7 7 7 8 9 9 9 10 10 10 9 8 8
-1 -1 -1 -1 -1 -1 -1 -1 -1 -1 -0 -1 1 1 1 5 12 8 -2 -0 -0 5 7 8 8 9 10 10 10 9 8 7 6 7 8 8 8 10 10 10 9 9 9 8 8
-1 -1 -1 -1 -1 -1 -1 -1 -1 -0 -0 -1 0 1 5 9 10 7 1 5 8 7 8 8 9 10 11 10 9 9 9 8 7 8 9 9 10 10 11 10 9 9 9 9 8
-1 -1 -1 -1 -1 -1 -0 -1 -1 0 -0 -1 -0 1 6 11 8 8 9 9 9 8 8 8 9 8 9 9 9 8 8 9 9 9 9 10 11 10 10 10 10 10 10 9 9
-1 -1 -1 -1 -1 -0 -0 -0 -1 -0 -0 -0 -1 3 9 10 7 8 8 8 8 7 8 6 6 7 7 9 8 8 10 9 10 9 9 9 12 12 10 11 11 11 10 10 9
-0 -0 -0 -0 0 -0 -0 -0 -0 -0 -0 -1 -1 4 10 7 6 7 6 6 5 5 5 4 4 6 8 7 9 11 11 12 10 9 9 9 13 12 11 11 12 11 11 10 10
-0 0 -0 -0 -0 0 0 -0 -0 -0 -1 -1 3 6 9 3 7 6 6 6 5 5 4 5 5 8 8 10 12 12 13 13 12 10 10 10 13 12 11 12 12 12 11 11 10
-0 -0 0 1 1 1 0 0 0 -0 1 2 4 8 8 8 7 6 6 6 6 6 6 7 9 10 11 11 14 14 13 13 13 11 11 13 14 13 12 12 12 12 12 11 11
-0 -0 0 1 1 1 2 5 7 7 6 9 8 9 8 6 6 7 6 6 6 8 10 9 10 12 11 11 11 12 13 13 12 11 13 14 14 13 13 13 13 12 12 12 11
-0 -0 0 1 1 1 4 6 7 7 9 6 7 7 6 6 8 7 6 8 9 10 9 10 11 10 10 10 11 12 13 13 12 11 12 15 15 13 13 13 12 12 12 12 11
0 -0 0 1 2 4 4 4 3 4 9 7 6 7 7 7 8 8 7 8 9 10 10 11 10 9 10 11 12 12 13 13 13 12 14 15 15 15 13 13 12 12 12 11 11
1 1 1 1 4 4 5 3 3 4 12 10 8 7 7 7 8 6 7 7 9 10 10 10 9 10 11 11 11 13 11 12 12 13 15 14 17 16 15 15 14 13 13 13 12
2 2 2 2 5 5 4 3 4 7 17 9 8 5 7 8 8 7 8 7 10 10 10 11 11 11 11 11 10 12 12 13 12 14 15 15 16 14 16 16 15 14 13 13 12
1 2 2 4 5 4 4 4 7 13 17 10 8 9 9 9 9 8 10 9 9 11 10 11 10 10 11 11 11 12 13 14 14 15 17 16 15 14 17 16 15 14 13 13 12
2 2 3 4 6 4 5 8 13 16 10 11 10 10 10 11 11 10 12 14 14 14 14 13 12 12 11 12 12 13 16 17 18 18 17 15 16 13 14 15 14 14 13 12 12
2 3 5 7 5 5 7 11 16 13 12 10 11 10 11 12 12 12 12 15 14 15 16 16 16 13 12 13 14 14 15 17 19 20 19 17 17 14 14 14 13 13 13 13 12
3 9 10 9 5 6 9 14 15 12 12 12 11 13 13 13 14 13 14 15 14 15 16 17 17 14 14 13 13 15 16 14 18 19 19 18 16 14 15 15 14 14 13 13 12
10 12 11 11 7 8 11 13 14 13 12 12 14 13 14 14 15 15 14 13 14 14 14 16 18 16 14 13 14 14 14 17 17 20 21 19 19 16 16 16 15 14 13 13 12
11 12 11 11 9 10 14 14 14 13 12 13 13 14 14 15 16 16 16 14 13 15 14 16 18 17 15 16 16 16 16 17 17 18 19 20 18 15 15 14 14 14 13 12 12
13 14 11 10 12 16 15 14 11 13 12 13 13 14 15 16 17 16 15 14 13 14 16 16 18 19 17 16 15 15 16 16 17 19 20 20 19 14 14 14 14 13 13 12 12
15 14 12 11 15 17 15 14 14 14 14 14 15 14 15 16 17 15 14 12 13 14 16 16 18 19 17 16 15 16 16 17 17 18 19 19 16 14 14 14 13 13 13 12 12
13 15 14 15 17 15 16 16 16 14 14 14 15 14 15 17 16 17 15 13 13 13 12 14 19 18 17 17 17 17 17 17 16 18 18 18 15 13 14 14 13 13 13 13 12
15 15 15 16 16 17 16 16 17 17 15 15 16 15 16 18 17 17 15 14 13 11 14 15 18 19 18 18 18 18 17 17 17 16 17 15 17 15 14 14 13 13 13 12 12
15 16 17 18 17 17 15 16 16 15 16 16 16 15 16 17 16 17 15 15 15 14 14 16 18 18 19 17 17 18 17 16 17 16 17 16 17 13 13 13 14 13 13 12 11
13 14 14 16 17 17 17 16 15 15 15 14 15 15 16 15 15 15 15 15 15 15 16 16 17 19 20 19 19 20 18 17 16 16 16 18 15 14 15 14 13 13 12 12 11